Date String (YYYY-MM-DD hh:mm:ss) UTC,Instrument flags,Ambient pressure (hPa),Sample flow (lpm),Bypass flow (lpm),Sample temperature (°C),Ambient temperature (°C),ASC tube jacket temperature (°C),LED temperature (°C),Box temperature (°C),Sample RH (%),Span deviation,Mass concentration (μg/m³),Mass concentration (μg/m³),Mass concentration (μg/m³)
DateTimeUTC,F1_M11,P_M11,Q1_M11,Q2_M11,T1_M11,T2_M11,T3_M11,T4_M11,T5_M11,U1_M11,ZSPAN_M11,X2_M11,X0_M11,X1_M11
2022-12-15 12:00:00,,0819.3,4.97,0.00,22.1,21.3,00.0,30.9,24.0,07.4,0000.0,0003.64,0007.54,0003.25
2022-12-15 12:01:00,,0819.3,5.01,0.00,22.1,21.1,00.0,30.9,23.9,07.4,0000.0,0003.63,0007.61,0003.25
2022-12-15 12:02:00,,0819.3,5.00,0.00,22.1,20.9,00.0,30.9,23.9,07.4,0000.0,0003.61,0007.51,0003.24
2022-12-15 12:03:00,,0819.3,5.00,0.00,22.1,20.8,00.0,30.9,23.9,07.4,0000.0,0003.63,0007.59,0003.24
2022-12-15 12:04:00,,0819.4,5.04,0.00,22.0,20.7,00.0,30.9,23.8,07.4,0000.0,0003.61,0007.75,0003.25
2022-12-15 12:05:00,,0819.3,4.96,0.00,22.0,20.6,00.0,30.9,23.8,07.4,0000.0,0003.61,0007.58,0003.25
2022-12-15 12:06:00,,0819.3,5.04,0.00,22.0,20.5,00.0,30.9,23.8,07.4,0000.0,0003.63,0007.64,0003.25
2022-12-15 12:07:00,,0819.3,4.95,0.00,22.0,20.5,00.0,30.9,23.8,07.4,0000.0,0003.63,0007.83,0003.24
2022-12-15 12:08:00,,0819.3,5.03,0.00,22.0,20.5,00.0,30.9,23.8,07.4,0000.0,0003.62,0007.82,0003.24
2022-12-15 12:09:00,,0819.3,4.98,0.00,22.0,20.5,00.0,30.9,23.7,07.4,0000.0,0003.62,0007.79,0003.24
2022-12-15 12:10:00,,0819.2,5.00,0.00,22.0,20.7,00.0,30.8,23.8,07.5,0000.0,0003.58,0007.72,0003.24
2022-12-15 12:11:00,,0819.3,5.01,0.00,22.0,21.7,00.0,30.8,24.0,07.4,0000.0,0003.58,0006.71,0003.24
2022-12-15 12:12:00,,0819.3,4.99,0.00,22.2,22.2,00.0,30.8,24.2,07.4,0000.0,0003.60,0006.62,0003.24
2022-12-15 12:13:00,,0819.2,4.99,0.00,22.2,22.0,00.0,30.9,24.2,07.4,0000.0,0003.64,0006.86,0003.24
2022-12-15 12:14:00,,0819.2,5.00,0.00,22.2,21.6,00.0,30.9,24.1,07.4,0000.0,0003.63,0007.68,0003.23
2022-12-15 12:15:00,,0819.2,5.01,0.00,22.2,21.4,00.0,30.9,24.0,07.4,0000.0,0003.62,0007.62,0003.22
2022-12-15 12:16:00,,0819.3,5.00,0.00,22.2,21.1,00.0,31.0,24.0,07.4,0000.0,0003.63,0007.59,0003.21
2022-12-15 12:17:00,,0819.3,5.00,0.00,22.2,21.0,00.0,31.0,24.0,07.4,0000.0,0003.64,0007.80,0003.22
2022-12-15 12:18:00,,0819.3,5.00,0.00,22.2,20.9,00.0,31.0,23.9,07.4,0000.0,0003.65,0007.91,0003.22
2022-12-15 12:19:00,,0819.3,5.00,0.00,22.1,20.8,00.0,31.0,23.9,07.4,0000.0,0003.66,0008.35,0003.22
2022-12-15 12:20:00,,0819.3,5.00,0.00,22.1,20.7,00.0,31.0,23.9,07.4,0000.0,0003.64,0008.44,0003.21
2022-12-15 12:21:00,,0819.3,4.99,0.00,22.1,20.6,00.0,31.0,23.9,07.4,0000.0,0003.66,0008.46,0003.22
2022-12-15 12:22:00,,0819.3,5.00,0.00,22.1,20.6,00.0,30.9,23.8,07.4,0000.0,0003.64,0008.84,0003.21
2022-12-15 12:23:00,,0819.3,5.00,0.00,22.1,20.5,00.0,30.9,23.8,07.4,0000.0,0003.64,0008.88,0003.22
2022-12-15 12:24:00,,0819.3,5.00,0.00,22.0,20.5,00.0,30.9,23.8,07.4,0000.0,0003.61,0008.81,0003.23
2022-12-15 12:25:00,,0819.2,5.00,0.00,22.0,20.5,00.0,30.9,23.8,07.5,0000.0,0003.61,0008.63,0003.23
2022-12-15 12:26:00,,0819.3,5.01,0.00,22.1,21.2,00.0,30.9,23.9,07.5,0000.0,0003.62,0009.16,0003.24
2022-12-15 12:27:00,,0819.2,4.98,0.00,22.2,22.2,00.0,30.9,24.2,07.4,0000.0,0003.62,0009.19,0003.24
2022-12-15 12:28:00,,0819.3,5.02,0.00,22.3,22.2,00.0,30.9,24.3,07.4,0000.0,0003.62,0009.35,0003.24
2022-12-15 12:29:00,,0819.3,4.98,0.00,22.3,21.9,00.0,31.0,24.2,07.4,0000.0,0003.60,0009.41,0003.25
2022-12-15 12:30:00,,0819.3,5.01,0.00,22.3,21.6,00.0,31.0,24.1,07.4,0000.0,0003.60,0009.05,0003.25
2022-12-15 12:31:00,,0819.3,5.01,0.00,22.2,21.3,00.0,31.0,24.1,07.4,0000.0,0003.64,0009.53,0003.26
2022-12-15 12:32:00,,0819.3,5.01,0.00,22.2,21.1,00.0,31.0,24.0,07.5,0000.0,0003.63,0009.72,0003.27
2022-12-15 12:33:00,,0819.3,5.00,0.00,22.2,20.9,00.0,31.0,24.0,07.5,0000.0,0003.64,0009.29,0003.29
2022-12-15 12:34:00,,0819.3,5.00,0.00,22.2,20.8,00.0,31.0,24.0,07.5,0000.0,0003.64,0009.42,0003.30
2022-12-15 12:35:00,,0819.2,5.00,0.00,22.2,20.7,00.0,31.0,24.0,07.5,0000.0,0003.65,0009.54,0003.30
2022-12-15 12:36:00,,0819.2,5.00,0.00,22.2,20.7,00.0,31.0,23.9,07.5,0000.0,0003.67,0009.02,0003.30
2022-12-15 12:37:00,,0819.2,5.00,0.00,22.1,20.7,00.0,31.0,23.9,07.5,0000.0,0003.66,0008.45,0003.30
2022-12-15 12:38:00,,0819.3,5.00,0.00,22.1,20.6,00.0,31.0,23.9,07.5,0000.0,0003.64,0009.50,0003.31
2022-12-15 12:39:00,,0819.3,5.00,0.00,22.1,20.6,00.0,31.0,23.8,07.5,0000.0,0003.62,0009.92,0003.31
2022-12-15 12:40:00,,0819.2,5.00,0.00,22.1,20.6,00.0,31.0,23.9,07.5,0000.0,0003.65,0009.57,0003.32
2022-12-15 12:41:00,,0819.3,5.00,0.00,22.1,21.4,00.0,30.9,24.0,07.6,0000.0,0003.66,0010.14,0003.34
2022-12-15 12:42:00,,0819.3,4.99,0.00,22.3,22.2,00.0,30.9,24.2,07.5,0000.0,0003.69,0010.07,0003.34
2022-12-15 12:43:00,,0819.3,5.02,0.00,22.3,22.2,00.0,31.0,24.3,07.5,0000.0,0003.72,0009.96,0003.35
2022-12-15 12:44:00,,0819.3,4.97,0.00,22.3,21.9,00.0,31.0,24.3,07.5,0000.0,0003.74,0010.01,0003.35
2022-12-15 12:45:00,,0819.4,5.01,0.00,22.3,21.6,00.0,31.1,24.2,07.5,0000.0,0003.76,0009.97,0003.36
2022-12-15 12:46:00,,0819.5,5.01,0.00,22.3,21.3,00.0,31.1,24.1,07.5,0000.0,0003.79,0009.84,0003.37
2022-12-15 12:47:00,,0819.4,5.00,0.00,22.3,21.2,00.0,31.1,24.1,07.5,0000.0,0003.79,0009.78,0003.38
2022-12-15 12:48:00,,0819.4,5.00,0.00,22.3,21.0,00.0,31.1,24.1,07.4,0000.0,0003.84,0009.88,0003.39
2022-12-15 12:49:00,,0819.4,5.00,0.00,22.3,20.9,00.0,31.1,24.0,07.5,0000.0,0003.90,0009.44,0003.41
2022-12-15 12:50:00,,0819.4,5.00,0.00,22.2,20.8,00.0,31.1,24.0,07.5,0000.0,0003.98,0008.56,0003.42
2022-12-15 12:51:00,,0819.4,5.00,0.00,22.2,20.7,00.0,31.1,24.0,07.5,0000.0,0004.01,0008.99,0003.42
2022-12-15 12:52:00,,0819.4,5.00,0.00,22.2,20.7,00.0,31.1,23.9,07.5,0000.0,0004.04,0008.84,0003.43
2022-12-15 12:53:00,,0819.4,5.00,0.00,22.2,20.7,00.0,31.1,23.9,07.6,0000.0,0004.01,0009.54,0003.43
2022-12-15 12:54:00,,0819.4,5.01,0.00,22.2,20.7,00.0,31.1,23.9,07.6,0000.0,0004.02,0009.57,0003.44
2022-12-15 12:55:00,,0819.5,5.00,0.00,22.1,20.7,00.0,31.0,23.9,07.6,0000.0,0004.02,0009.58,0003.44
2022-12-15 12:56:00,,0819.5,5.02,0.00,22.2,21.5,00.0,31.0,24.1,07.6,0000.0,0004.04,0009.60,0003.45
2022-12-15 12:57:00,,0819.5,4.98,0.00,22.3,22.4,00.0,31.0,24.3,07.6,0000.0,0004.01,0009.55,0003.44
2022-12-15 12:58:00,,0819.5,5.02,0.00,22.4,22.3,00.0,31.0,24.4,07.5,0000.0,0004.03,0009.88,0003.44
2022-12-15 12:59:00,,0819.5,4.97,0.00,22.4,22.0,00.0,31.1,24.3,07.5,0000.0,0004.02,0010.39,0003.44
